Simultaneous Nadir Overpasses (SNOs) Predictions

Prediction of SNOs between GOES-16 and METOP-B Satellite Orbit:

Table of predicted SNOs for the next 14.0 days since TLE Epoch: 7/3/2020
Index Date Time (GOES-16) GOES-16 Lat,Lon METOP-B Lat,Lon Distance(km) Time Diff (sec)
1 07/04/2020 14:45:33 -0.01, -75.20 0.83, -79.01 433.30 80
2 07/05/2020 14:27:33 -0.01, -75.21 -0.30, -74.02 136.08 80
3 07/07/2020 02:46:33 0.01, -75.19 -0.73, -78.61 389.16 80
4 07/08/2020 02:23:12 0.01, -75.20 0.34, -73.61 180.68 80
5 07/09/2020 14:42:04 -0.01, -75.23 0.62, -78.18 335.69 80
6 07/10/2020 14:24:04 -0.01, -75.24 -0.45, -73.18 234.75 80
7 07/12/2020 02:43:03 0.01, -75.24 -0.58, -77.77 288.83 80
8 07/13/2020 02:19:44 0.01, -75.25 0.56, -72.78 281.88 80
9 07/14/2020 14:38:35 -0.01, -75.29 0.46, -77.34 233.51 80
10 07/15/2020 14:20:36 -0.01, -75.31 -0.67, -72.35 337.50 80
11 07/17/2020 02:39:35 0.02, -75.32 -0.35, -76.94 185.30 80
